TimeAKDT,TemperatureF,Dew PointF,Humidity,Sea Level PressureIn,VisibilityMPH,Wind Direction,Wind SpeedMPH,Gust SpeedMPH,PrecipitationIn,Events,Conditions,WindDirDegrees,DateUTC
12:53 AM,35.1,33.1,92,30.39,10.0,Calm,Calm,-,N/A,,Overcast,0,2013-03-10 09:53:00
1:53 AM,33.1,32.0,96,30.40,10.0,SE,6.9,-,N/A,,Clear,130,2013-03-10 10:53:00
4:53 AM,33.1,32.0,96,30.40,10.0,SE,5.8,-,N/A,,Scattered Clouds,140,2013-03-10 12:53:00
5:53 AM,34.0,33.1,96,30.41,10.0,Variable,3.5,-,N/A,,Mostly Cloudy,0,2013-03-10 13:53:00
6:53 AM,34.0,34.0,100,30.41,10.0,South,3.5,-,N/A,,Mostly Cloudy,190,2013-03-10 14:53:00
7:53 AM,34.0,33.1,96,30.42,10.0,Calm,Calm,-,N/A,,Overcast,0,2013-03-10 15:53:00
8:53 AM,35.1,34.0,96,30.42,10.0,South,3.5,-,N/A,,Overcast,180,2013-03-10 16:53:00
9:53 AM,37.0,35.1,93,30.42,10.0,SSE,4.6,-,N/A,,Overcast,160,2013-03-10 17:53:00
10:53 AM,37.9,35.1,89,30.42,10.0,SE,5.8,-,N/A,,Overcast,130,2013-03-10 18:53:00
11:53 AM,39.0,34.0,82,30.42,9.0,ESE,9.2,-,0.00,Rain,Light Rain,110,2013-03-10 19:53:00
12:53 PM,39.9,30.9,70,30.42,10.0,SE,5.8,-,0.00,,Mostly Cloudy,130,2013-03-10 20:53:00
1:53 PM,42.1,30.9,65,30.41,10.0,SE,5.8,-,N/A,,Overcast,130,2013-03-10 21:53:00
2:53 PM,39.9,33.1,77,30.40,10.0,SE,11.5,-,0.00,,Overcast,130,2013-03-10 22:53:00
3:53 PM,41.0,33.1,73,30.40,10.0,Variable,4.6,-,0.00,Rain,Light Rain,0,2013-03-10 23:53:00
4:53 PM,39.9,34.0,79,30.40,10.0,SE,9.2,-,0.00,,Mostly Cloudy,130,2013-03-11 00:53:00
5:25 PM,39.2,35.6,87,30.39,10.0,SE,5.8,-,N/A,,Overcast,140,2013-03-11 01:25:00
5:37 PM,39.2,35.6,87,30.39,10.0,SSE,5.8,-,N/A,,Overcast,150,2013-03-11 01:37:00
5:53 PM,39.0,36.0,89,30.40,10.0,SE,8.1,-,0.00,Rain,Light Rain,140,2013-03-11 01:53:00
6:53 PM,37.9,35.1,89,30.40,10.0,SE,5.8,-,0.00,,Overcast,140,2013-03-11 02:53:00
7:53 PM,37.0,35.1,93,30.40,10.0,SE,4.6,-,0.00,,Overcast,140,2013-03-11 03:53:00
8:53 PM,37.0,36.0,96,30.40,10.0,SE,4.6,-,N/A,,Overcast,140,2013-03-11 04:53:00
9:00 PM,37.4,35.6,93,30.40,10.0,SE,4.6,-,N/A,,Overcast,140,2013-03-11 05:00:00
9:18 PM,35.6,35.6,100,30.40,10.0,SSE,5.8,-,N/A,,Overcast,160,2013-03-11 05:18:00
9:53 PM,36.0,35.1,97,30.40,10.0,SSE,5.8,-,N/A,,Overcast,160,2013-03-11 05:53:00
10:10 PM,35.6,35.6,100,30.40,10.0,SSE,4.6,-,N/A,,Overcast,150,2013-03-11 06:10:00
10:19 PM,37.4,35.6,93,30.40,10.0,SSE,5.8,-,N/A,,Overcast,160,2013-03-11 06:19:00
10:51 PM,37.4,35.6,93,30.41,10.0,SSE,5.8,-,N/A,,Overcast,150,2013-03-11 06:51:00
10:53 PM,37.0,35.1,93,30.41,10.0,SSE,4.6,-,N/A,,Overcast,150,2013-03-11 06:53:00
11:53 PM,36.0,35.1,97,30.42,10.0,SSE,4.6,-,N/A,,Overcast,150,2013-03-11 07:53:00
12:53 AM,36.0,35.1,97,30.42,10.0,SSE,4.6,-,N/A,,Overcast,160,2013-03-11 08:53:00